STARLINK-1509 (45766 NORAD) Tracking and Keplerian Element Data

This shows tracking and keplerian element data for the satellite.

Feedback or suggestion? Click here.




ElementValue
Catalog45766
NameSTARLINK-1509
Epoch Orbit951
Epoch Day218.91667824
Epoch Year2020
RAAN33.8941
Inclination53.0001
Eccentricity0.0001979
Argument of Perigee29.7501
Mean Anonmoly174.0215
Mean Motion15.6269634
Decay Rate0.00068127
L11 45766U 20038AN 20218.91667824 .00068127 00000-0 74523-3 0 9995
L22 45766 53.0001 33.8941 0001979 29.7501 174.0215 15.62696340 9514

Live tracking and technical data element details for STARLINK-1509 (NORAD 45766). STARLINK-1509 can be tracked NOW for your location showing map with azimuth and elevation plus other details from your city location.

Track the satellite on the map from your city or location and see movement details for azimuth, elevation, latitude, longitude, range, height, and movement on the map or in text.







IsCatalogInMostPopularTable: catalog: 45766, numindb: 10
Update: records affected: 1



GetName: 45766 STARLINK-1509

Hit Count: updated at: Sat, 08 Aug 2020 01:07:33 GMT